Regional Weather Roundup
Issued by NWS

Home | Current Version | Previous Version | Graphics & Text | Print | Product List | Glossary On
Versions: 1 2 3 4 5 6 7 8 9 10 11 12 13 14 15 16 17 18 19 20 21 22 23 24 25 26 27 28 29 30 31 32 33 34 35 36 37 38 39 40 41 42 43 44 45 46 47 48 49 50
000
ASUS43 KOAX 221402
RWRNE

WEATHER ROUNDUP FOR NEBRASKA
NATIONAL WEATHER SERVICE OMAHA NE
900 AM CDT TUE APR 22 2014

NOTES: SATELLITE DATA IS BEING USED TO AUGMENT CLOUD COVER ABOVE
       12000 FEET.
       "FAIR" INDICATES FEW OR NO CLOUDS BELOW 12,000 FEET WITH NO
       SIGNIFICANT WEATHER AND/OR OBSTRUCTIONS TO VISIBILITY.

  * THESE STATIONS DO NOT REPORT WEATHER SUCH AS RAIN...SNOW OR FOG.

NEZ001>004-019>022-054>056-221500-
NEBRASKA PANHANDLE

CITY           SKY/WX    TMP DP  RH WIND       PRES   REMARKS
SCOTTSBLUFF    PTSUNNY   53  36  52 SE16      29.96F
ALLIANCE       MOSUNNY   53  34  48 S24G36    29.96F
CHADRON        PTSUNNY   55  36  48 SW12G18   29.89S
KIMBALL        CLOUDY    48  36  61 S15       29.98F
SIDNEY         PTSUNNY   53  33  46 S23       30.01F
$$

NEZ057>060-069>072-079>082-221500-
SOUTHWEST NEBRASKA

CITY           SKY/WX    TMP DP  RH WIND       PRES   REMARKS
NORTH PLATTE   MOSUNNY   53  28  38 SE16G22   30.09F
IMPERIAL       SUNNY     54  27  35 S15G24    30.08F
LEXINGTON      SUNNY     52  35  52 S15       30.12F
MCCOOK         SUNNY     53  30  41 SE13      30.12F
OGALLALA       MOSUNNY   52  28  40 S8        30.06F
$$

NEZ005>010-023>029-035>040-094-221500-
NORTH CENTRAL NEBRASKA

CITY           SKY/WX    TMP DP  RH WIND       PRES   REMARKS
VALENTINE      PTSUNNY   53  25  33 S22G29    30.03F
AINSWORTH      MOSUNNY   53  31  43 S16       30.06F
BROKEN BOW     MOSUNNY   49  35  58 S14       30.11S
O`NEILL        SUNNY     50  31  49 S15       30.12F
ORD            MOSUNNY   50  33  52 SE10G18   30.12F
THEDFORD       SUNNY     54  24  31 S16G23    30.07F
$$

NEZ041-046>049-061>064-073>077-083>087-221500-
SOUTH CENTRAL NEBRASKA

CITY           SKY/WX    TMP DP  RH WIND       PRES   REMARKS
GRAND ISLAND   SUNNY     51  34  52 SE14      30.15F
AURORA         SUNNY     50  34  54 SE15      30.15F
HASTINGS       SUNNY     51  33  50 SE9       30.15S
HEBRON         SUNNY     49  36  59 SE8       30.17S
HOLDREGE       SUNNY     52  34  51 S14       30.13F
KEARNEY *      SUNNY     48  36  61 SE12      30.14F
YORK           SUNNY     48  34  57 S9        30.18R
$$

NEZ011>018-030>034-042>045-221500-
NORTHEAST NEBRASKA

CITY           SKY/WX    TMP DP  RH WIND       PRES   REMARKS
NORFOLK        SUNNY     49  31  49 SE12      30.15F
ALBION         SUNNY     48  32  53 SE12      30.15F
BLAIR          SUNNY     51  29  42 NE8       30.16S
COLUMBUS *     SUNNY     48  32  53 SE7       30.17S
FREMONT        SUNNY     50  31  48 E8        30.16F
TEKAMAH        SUNNY     51  31  46 CALM      30.17S
$$

NEZ050>053-065>068-078-088>093-221500-
SOUTHEAST NEBRASKA

CITY           SKY/WX    TMP DP  RH WIND       PRES   REMARKS
LINCOLN        SUNNY     52  34  50 E5        30.18S
OMAHA EPPLEY   SUNNY     50  33  52 CALM      30.17S
BEATRICE       SUNNY     52  29  41 E14       30.15F
FALLS CITY     SUNNY     52  32  46 NE7       30.16S
NEBRASKA CITY  SUNNY     51  32  48 NE8       30.17R
PLATTSMOUTH    SUNNY     50  30  45 E9        30.17S
$$

NEZ044-045-051>053-067-221500-
OMAHA AREA

CITY           SKY/WX    TMP DP  RH WIND       PRES   REMARKS
OMAHA EPPLEY   SUNNY     50  33  52 CALM      30.17S
BLAIR          SUNNY     51  29  42 NE8       30.16S
FREMONT        SUNNY     50  31  48 E8        30.16F
MILLARD        SUNNY     52  28  39 E3        30.17R
OFFUTT AFB     SUNNY     51  32  48 NE2       30.17S
PLATTSMOUTH    SUNNY     50  30  45 E9        30.17S
WAHOO          FAIR      51  31  47 E7        30.17R
$$



USA.gov is the U.S. government's official web portal to all federal, state and local government web resources and services.